• In Deutschland
  • Länderverzeichnis
  • Für 7 Tage
  • Wassertemperatur
  • Satellitenkarten
  • Wetterkarte
  • Widgets
  • user-avatar
    Anmelden

    Stündliche Wetter Mingachevir

    Heute, 28 Juni, Mittwoch

    Zeit Temperatur Niederschläge Wind Luftdruck Luftfeuchtigkeit
    00:00 +25°C° 0 mm 2 m/S 750 mmHg 75%
    01:00 +24°C° 0 mm 1 m/S 750 mmHg 78%
    02:00 +24°C° 0 mm 1 m/S 750 mmHg 81%
    03:00 +23°C° 0 mm 1 m/S 750 mmHg 82%
    04:00 +24°C° 0 mm 1 m/S 750 mmHg 80%
    05:00 +25°C° 0 mm 1 m/S 750 mmHg 78%
    06:00 +24°C° 0 mm 0 m/S 750 mmHg 76%
    07:00 +28°C° 0 mm 1 m/S 750 mmHg 69%
    08:00 +29°C° 0 mm 1 m/S 750 mmHg 62%
    09:00 +31°C° 0 mm 2 m/S 749 mmHg 54%
    10:00 +34°C° 0 mm 2 m/S 749 mmHg 49%
    11:00 +35°C° 0 mm 3 m/S 749 mmHg 44%
    12:00 +36°C° 0 mm 3 m/S 748 mmHg 39%
    13:00 +37°C° 0 mm 3 m/S 748 mmHg 38%
    14:00 +38°C° 0 mm 3 m/S 748 mmHg 36%
    15:00 +39°C° 0 mm 3 m/S 747 mmHg 35%
    16:00 +38°C° 0 mm 4 m/S 747 mmHg 36%
    17:00 +38°C° 0 mm 4 m/S 747 mmHg 37%
    18:00 +37°C° 0 mm 4 m/S 747 mmHg 38%
    19:00 +35°C° 0 mm 3 m/S 747 mmHg 41%
    20:00 +33°C° 0 mm 3 m/S 748 mmHg 44%
    21:00 +29°C° 0 mm 3 m/S 748 mmHg 47%
    22:00 +28°C° 0 mm 3 m/S 748 mmHg 50%
    23:00 +27°C° 0 mm 2 m/S 749 mmHg 52%

    Morgen, 29 Juni, Donnerstag

    Zeit Temperatur Niederschläge Wind Luftdruck Luftfeuchtigkeit
    00:00 +26°C° 0 mm 1 m/S 749 mmHg 55%
    01:00 +26°C° 0 mm 1 m/S 749 mmHg 57%
    02:00 +25°C° 0 mm 1 m/S 749 mmHg 59%
    03:00 +22°C° 0 mm 0 m/S 749 mmHg 61%
    04:00 +26°C° 0 mm 1 m/S 749 mmHg 57%
    05:00 +27°C° 0 mm 1 m/S 749 mmHg 53%
    06:00 +28°C° 0 mm 1 m/S 749 mmHg 50%
    07:00 +30°C° 0 mm 1 m/S 749 mmHg 44%
    08:00 +31°C° 0 mm 1 m/S 749 mmHg 38%
    09:00 +33°C° 0 mm 1 m/S 749 mmHg 33%
    10:00 +34°C° 0 mm 1 m/S 748 mmHg 30%
    11:00 +35°C° 0 mm 1 m/S 748 mmHg 27%
    12:00 +38°C° 0 mm 2 m/S 748 mmHg 25%
    13:00 +38°C° 0 mm 2 m/S 747 mmHg 23%
    14:00 +39°C° 0 mm 2 m/S 747 mmHg 22%
    15:00 +39°C° 0 mm 2 m/S 747 mmHg 21%
    16:00 +39°C° 0 mm 2 m/S 747 mmHg 22%
    17:00 +38°C° 0 mm 2 m/S 747 mmHg 23%
    18:00 +38°C° 0 mm 2 m/S 747 mmHg 25%
    19:00 +35°C° 0 mm 2 m/S 747 mmHg 27%
    20:00 +32°C° 0 mm 2 m/S 748 mmHg 30%
    21:00 +29°C° 0 mm 2 m/S 748 mmHg 33%
    22:00 +28°C° 0 mm 2 m/S 748 mmHg 34%
    23:00 +28°C° 0 mm 2 m/S 748 mmHg 35%

    übermorgen, 30 Juni, Freitag

    Zeit Temperatur Niederschläge Wind Luftdruck Luftfeuchtigkeit
    00:00 +27°C° 0 mm 2 m/S 748 mmHg 36%
    01:00 +26°C° 0 mm 2 m/S 748 mmHg 37%
    02:00 +26°C° 0 mm 1 m/S 748 mmHg 39%
    03:00 +25°C° 0 mm 1 m/S 748 mmHg 40%
    04:00 +26°C° 0 mm 1 m/S 748 mmHg 39%
    05:00 +27°C° 0 mm 2 m/S 749 mmHg 39%
    06:00 +28°C° 0 mm 3 m/S 749 mmHg 38%
    07:00 +30°C° 0 mm 3 m/S 749 mmHg 34%
    08:00 +33°C° 0 mm 4 m/S 749 mmHg 31%
    09:00 +35°C° 0 mm 4 m/S 749 mmHg 27%
    10:00 +36°C° 0 mm 4 m/S 749 mmHg 25%
    11:00 +37°C° 0 mm 3 m/S 748 mmHg 22%
    12:00 +38°C° 0 mm 2 m/S 748 mmHg 19%
    13:00 +38°C° 0 mm 2 m/S 748 mmHg 18%
    14:00 +39°C° 0 mm 2 m/S 748 mmHg 17%
    15:00 +40°C° 0 mm 1 m/S 748 mmHg 16%
    16:00 +39°C° 0 mm 2 m/S 748 mmHg 18%
    17:00 +38°C° 0 mm 2 m/S 748 mmHg 19%
    18:00 +38°C° 0 mm 3 m/S 748 mmHg 20%
    19:00 +35°C° 0 mm 3 m/S 749 mmHg 23%
    20:00 +33°C° 0 mm 3 m/S 749 mmHg 25%
    21:00 +29°C° 0 mm 3 m/S 750 mmHg 27%
    22:00 +29°C° 0 mm 3 m/S 750 mmHg 28%
    23:00 +28°C° 0 mm 3 m/S 750 mmHg 29%

    1 Juli, Samstag

    Zeit Temperatur Niederschläge Wind Luftdruck Luftfeuchtigkeit
    00:00 +27°C° 0 mm 3 m/S 750 mmHg 30%
    01:00 +26°C° 0 mm 2 m/S 751 mmHg 31%
    02:00 +26°C° 0 mm 2 m/S 751 mmHg 32%
    03:00 +25°C° 0 mm 2 m/S 751 mmHg 34%
    04:00 +26°C° 0 mm 2 m/S 751 mmHg 34%
    05:00 +27°C° 0 mm 2 m/S 751 mmHg 33%
    06:00 +28°C° 0 mm 2 m/S 752 mmHg 33%
    07:00 +30°C° 0 mm 2 m/S 752 mmHg 29%
    08:00 +32°C° 0 mm 2 m/S 752 mmHg 25%
    09:00 +35°C° 0 mm 3 m/S 751 mmHg 21%
    10:00 +36°C° 0 mm 2 m/S 751 mmHg 19%
    11:00 +38°C° 0 mm 2 m/S 751 mmHg 18%
    12:00 +39°C° 0 mm 1 m/S 751 mmHg 16%
    13:00 +40°C° 0 mm 2 m/S 750 mmHg 16%
    14:00 +40°C° 0 mm 3 m/S 750 mmHg 15%
    15:00 +42°C° 0 mm 3 m/S 750 mmHg 15%
    16:00 +41°C° 0 mm 4 m/S 750 mmHg 16%
    17:00 +40°C° 0 mm 4 m/S 750 mmHg 18%
    18:00 +38°C° 0 mm 4 m/S 750 mmHg 20%
    19:00 +36°C° 0 mm 4 m/S 750 mmHg 22%
    20:00 +33°C° 0 mm 4 m/S 751 mmHg 24%
    21:00 +30°C° 0 mm 3 m/S 751 mmHg 27%
    22:00 +29°C° 0 mm 3 m/S 751 mmHg 28%
    23:00 +28°C° 0 mm 3 m/S 751 mmHg 30%

    2 Juli, Sonntag

    Zeit Temperatur Niederschläge Wind Luftdruck Luftfeuchtigkeit
    00:00 +27°C° 0 mm 2 m/S 752 mmHg 31%
    01:00 +27°C° 0 mm 2 m/S 751 mmHg 32%
    02:00 +26°C° 0 mm 2 m/S 751 mmHg 32%
    03:00 +25°C° 0 mm 1 m/S 751 mmHg 33%
    04:00 +26°C° 0 mm 1 m/S 751 mmHg 33%
    05:00 +28°C° 0 mm 1 m/S 751 mmHg 33%
    06:00 +29°C° 0 mm 1 m/S 751 mmHg 34%
    07:00 +31°C° 0 mm 1 m/S 751 mmHg 29%
    08:00 +33°C° 0 mm 1 m/S 751 mmHg 25%
    09:00 +35°C° 0 mm 1 m/S 751 mmHg 20%
    10:00 +36°C° 0 mm 1 m/S 750 mmHg 19%
    11:00 +39°C° 0 mm 2 m/S 750 mmHg 18%
    12:00 +40°C° 0 mm 2 m/S 749 mmHg 16%
    13:00 +42°C° 0 mm 3 m/S 749 mmHg 16%
    14:00 +42°C° 0 mm 3 m/S 748 mmHg 16%
    15:00 +43°C° 0 mm 4 m/S 748 mmHg 16%
    16:00 +42°C° 0 mm 4 m/S 748 mmHg 17%
    17:00 +41°C° 0 mm 4 m/S 748 mmHg 19%
    18:00 +41°C° 0 mm 4 m/S 748 mmHg 21%
    19:00 +37°C° 0 mm 4 m/S 748 mmHg 23%
    20:00 +34°C° 0 mm 3 m/S 748 mmHg 25%
    21:00 +31°C° 0 mm 3 m/S 749 mmHg 27%
    22:00 +30°C° 0 mm 3 m/S 749 mmHg 28%
    23:00 +29°C° 0 mm 2 m/S 749 mmHg 30%

    3 Juli, Montag

    Zeit Temperatur Niederschläge Wind Luftdruck Luftfeuchtigkeit
    00:00 +28°C° 0 mm 2 m/S 749 mmHg 32%
    01:00 +27°C° 0 mm 2 m/S 748 mmHg 33%
    02:00 +27°C° 0 mm 1 m/S 748 mmHg 34%
    03:00 +26°C° 0 mm 1 m/S 748 mmHg 36%
    04:00 +27°C° 0 mm 2 m/S 748 mmHg 35%
    05:00 +28°C° 0 mm 2 m/S 748 mmHg 35%
    06:00 +29°C° 0 mm 2 m/S 748 mmHg 34%
    07:00 +31°C° 0 mm 2 m/S 747 mmHg 30%
    08:00 +34°C° 0 mm 2 m/S 747 mmHg 26%
    09:00 +36°C° 0 mm 2 m/S 747 mmHg 21%
    10:00 +38°C° 0 mm 2 m/S 746 mmHg 20%
    11:00 +39°C° 0 mm 2 m/S 746 mmHg 19%
    12:00 +40°C° 0 mm 1 m/S 745 mmHg 18%
    13:00 +41°C° 0 mm 1 m/S 745 mmHg 17%
    14:00 +41°C° 0 mm 1 m/S 744 mmHg 17%
    15:00 +42°C° 0 mm 1 m/S 744 mmHg 16%
    16:00 +42°C° 0 mm 1 m/S 744 mmHg 18%
    17:00 +41°C° 0 mm 1 m/S 744 mmHg 20%
    18:00 +40°C° 0 mm 1 m/S 744 mmHg 22%
    19:00 +38°C° 0 mm 2 m/S 744 mmHg 25%
    20:00 +35°C° 0 mm 2 m/S 745 mmHg 27%
    21:00 +31°C° 0 mm 3 m/S 745 mmHg 30%
    22:00 +30°C° 0,1 mm 2 m/S 745 mmHg 34%
    23:00 +29°C° 0,1 mm 2 m/S 745 mmHg 38%
    Mehr zeigen